FW8645 Weather Reports


time (UTC)temp
C
wind
direction
speed
KPH
gust
KPH
rain 1hr
cm
rain 24hr
cm
rain mn
cm
humidity
%
barometer
mb
20260507212327 15 238 3.2 27.4 0.00 0.08 0.00 33 1004.5
20260507211822 15 278 9.7 27.4 0.00 0.08 0.00 32 1004.5
20260507211318 14 279 9.7 20.9 0.00 0.08 0.00 33 1004.5
20260507210813 14 254 9.7 25.7 0.00 0.08 0.00 34 1004.5
20260507210313 14 287 12.9 25.7 0.00 0.08 0.00 31 1004.4
20260507205827 15 224 12.9 33.8 0.00 0.08 0.00 33 1004.4
20260507205323 15 287 19.3 33.8 0.00 0.08 0.00 32 1004.4
20260507204819 15 285 6.4 33.8 0.00 0.08 0.00 33 1004.3
20260507204315 14 264 14.5 33.8 0.00 0.08 0.00 32 1004.4
20260507203829 15 275 8.0 29.0 0.00 0.08 0.00 33 1004.3
20260507203324 15 266 11.3 29.0 0.00 0.08 0.00 33 1004.2
20260507202840 15 222 9.7 20.9 0.00 0.08 0.00 35 1004.3
20260507202318 15 252 6.4 27.4 0.00 0.28 0.00 34 1004.4
20260507201834 15 257 12.9 25.7 0.00 0.28 0.00 33 1004.5
20260507201327 15 267 6.4 29.0 0.00 0.28 0.00 35 1004.4
20260507200822 15 283 8.0 25.7 0.00 0.28 0.00 36 1004.4
20260507200318 15 240 12.9 27.4 0.00 0.28 0.00 36 1004.3
20260507195813 15 268 6.4 24.1 0.00 0.28 0.00 35 1004.4
20260507195327 14 247 6.4 20.9 0.00 0.28 0.00 36 1004.4
20260507194822 14 261 4.8 20.9 0.00 0.28 0.00 35 1004.6
20260507194337 15 12 8.0 29.0 0.00 0.28 0.00 34 1004.5
20260507193816 15 264 16.1 29.0 0.00 0.28 0.00 32 1004.4
20260507193349 15 221 9.7 20.9 0.00 0.28 0.00 34 1004.4
20260507192822 15 249 4.8 24.1 0.00 0.28 0.00 34 1004.5
20260507192317 15 277 14.5 32.2 0.00 0.33 0.00 35 1004.5
20260507191828 15 268 19.3 32.2 0.00 0.33 0.00 33 1004.5
20260507191322 15 232 6.4 22.5 0.00 0.33 0.00 37 1004.6
20260507190818 15 268 8.0 30.6 0.00 0.33 0.00 34 1004.6
20260507190314 15 278 11.3 30.6 0.00 0.33 0.00 33 1004.6
20260507185813 15 264 6.4 30.6 0.00 0.33 0.00 34 1004.7
20260507185326 15 266 4.8 30.6 0.00 0.33 0.00 33 1004.7
20260507184823 15 241 8.0 35.4 0.00 0.33 0.00 36 1004.8
20260507184319 15 265 16.1 35.4 0.00 0.33 0.00 35 1004.6
20260507183816 15 237 4.8 17.7 0.00 0.33 0.00 38 1004.6
20260507183312 15 234 11.3 22.5 0.00 0.33 0.00 37 1004.8
20260507182829 15 313 6.4 29.0 0.00 0.33 0.00 41 1004.7
20260507182329 15 261 9.7 24.1 0.00 0.53 0.00 41 1004.8
20260507181319 14 263 16.1 24.1 0.00 0.53 0.00 39 1004.9
20260507180816 14 221 9.7 25.7 0.00 0.53 0.00 39 1004.8
20260507180313 14 228 12.9 27.4 0.00 0.53 0.00 40 1004.9
20260507175827 15 281 6.4 27.4 0.00 0.53 0.00 42 1004.8
20260507175323 14 263 9.7 35.4 0.00 0.53 0.00 43 1004.9
20260507174839 14 281 17.7 35.4 0.00 0.53 0.00 44 1004.9
20260507174318 14 269 16.1 37.0 0.00 0.53 0.00 42 1004.8
20260507173813 14 228 14.5 37.0 0.00 0.53 0.00 42 1004.9
20260507173326 14 243 12.9 32.2 0.00 0.53 0.00 42 1005.0
20260507172822 14 312 9.7 29.0 0.00 0.53 0.00 42 1005.0
20260507172316 14 249 12.9 27.4 0.00 0.58 0.00 41 1005.3
20260507171850 14 259 6.4 24.1 0.00 0.58 0.00 39 1005.2
20260507171324 13 254 14.5 24.1 0.00 0.58 0.00 39 1005.4
20260507170840 13 263 11.3 25.7 0.00 0.58 0.00 42 1005.4
20260507170318 13 275 11.3 35.4 0.00 0.58 0.00 42 1005.4
20260507165834 13 332 6.4 35.4 0.00 0.58 0.00 43 1005.4
20260507165328 13 282 8.0 22.5 0.00 0.58 0.00 43 1005.5
20260507164824 13 270 11.3 25.7 0.00 0.58 0.00 44 1005.4
20260507164319 13 249 9.7 25.7 0.00 0.58 0.00 46 1005.6
20260507163835 13 270 4.8 14.5 0.00 0.58 0.00 49 1005.8
20260507163329 13 285 8.0 40.2 0.00 0.58 0.00 51 1005.7
20260507162825 13 294 17.7 40.2 0.00 0.58 0.00 53 1006.0
20260507162320 12 263 16.1 27.4 0.00 0.58 0.00 55 1006.1
20260507161819 12 262 6.4 17.7 0.00 0.58 0.00 56 1006.0
20260507161314 12 287 6.4 24.1 0.00 0.58 0.00 56 1005.9
20260507160829 12 282 14.5 24.1 0.00 0.58 0.00 54 1006.0
20260507160325 12 261 8.0 17.7 0.00 0.58 0.00 55 1006.2
20260507155820 12 266 4.8 25.7 0.00 0.58 0.00 56 1006.2
20260507155316 12 252 4.8 16.1 0.00 0.58 0.00 58 1006.2
20260507154812 12 233 8.0 16.1 0.00 0.58 0.00 59 1006.3
20260507154347 12 274 8.0 27.4 0.00 0.58 0.00 58 1006.3
20260507153826 12 257 11.3 27.4 0.00 0.58 0.00 58 1006.3
20260507153320 11 276 9.7 27.4 0.00 0.58 0.00 61 1006.6
20260507152816 12 226 14.5 24.1 0.00 0.58 0.00 60 1006.6
20260507152330 12 247 6.4 24.1 0.00 0.58 0.00 62 1006.6
20260507151826 11 276 9.7 24.1 0.00 0.58 0.00 62 1006.6
20260507151341 12 245 6.4 30.6 0.00 0.58 0.00 61 1006.6
20260507150815 12 250 11.3 30.6 0.00 0.58 0.00 58 1006.6
20260507150315 12 332 6.4 20.9 0.00 0.58 0.00 62 1006.4
20260507145830 12 269 9.7 30.6 0.00 0.58 0.00 61 1006.5
20260507145326 12 238 17.7 33.8 0.00 0.58 0.00 60 1006.5
20260507144821 12 252 16.1 33.8 0.00 0.58 0.00 62 1006.4
20260507144316 12 258 14.5 30.6 0.00 0.58 0.00 62 1006.4
20260507143813 12 251 9.7 25.7 0.00 0.58 0.00 65 1006.3
20260507143326 12 280 12.9 33.8 0.00 0.58 0.00 62 1006.3
20260507142841 12 285 16.1 33.8 0.00 0.58 0.00 60 1006.3
20260507142319 12 263 11.3 27.4 0.00 0.58 0.00 63 1006.3
20260507141834 12 275 16.1 27.4 0.00 0.58 0.00 61 1006.3
20260507141327 12 224 11.3 20.9 0.00 0.58 0.00 63 1006.4
20260507140823 11 280 11.3 30.6 0.00 0.58 0.00 64 1006.3
20260507140318 11 252 12.9 30.6 0.00 0.58 0.00 64 1006.5
20260507135852 11 247 16.1 29.0 0.00 0.58 0.00 63 1006.4
20260507135323 12 248 11.3 25.7 0.00 0.58 0.00 64 1006.4
20260507134819 12 239 12.9 22.5 0.00 0.58 0.00 64 1006.4
20260507134315 12 252 11.3 24.1 0.00 0.58 0.00 64 1006.4
20260507133814 12 230 11.3 20.9 0.00 0.58 0.00 65 1006.3
20260507133330 11 233 8.0 17.7 0.00 0.58 0.00 66 1006.4
20260507132846 11 230 8.0 22.5 0.00 0.58 0.00 67 1006.5
20260507132320 11 256 6.4 17.7 0.00 0.58 0.00 68 1006.6
20260507131835 11 247 8.0 17.7 0.00 0.58 0.00 67 1006.6
20260507131350 11 244 9.7 17.7 0.00 0.58 0.00 68 1006.6
20260507130845 11 223 1.6 12.9 0.00 0.58 0.00 71 1006.7
20260507130319 11 255 8.0 17.7 0.00 0.58 0.00 70 1006.6
20260507125814 10 278 9.7 17.7 0.00 0.58 0.00 69 1006.6
20260507125329 11 232 8.0 17.7 0.00 0.58 0.00 71 1006.6
20260507124829 11 242 8.0 16.1 0.00 0.58 0.00 72 1006.6
20260507124324 10 263 9.7 16.1 0.00 0.58 0.00 71 1006.7
20260507123820 10 257 6.4 16.1 0.00 0.58 0.00 72 1006.5
20260507123335 10 233 6.4 16.1 0.00 0.58 0.00 73 1006.6
20260507122830 10 247 3.2 12.9 0.00 0.58 0.00 72 1006.6
20260507122325 10 242 4.8 12.9 0.00 0.58 0.00 73 1006.7
20260507121821 10 251 4.8 9.7 0.00 0.58 0.00 73 1006.7
20260507121316 10 239 4.8 14.5 0.00 0.58 0.00 77 1006.8
20260507120837 10 235 6.4 14.5 0.00 0.58 0.00 77 1006.9
20260507120351 10 223 6.4 14.5 0.00 0.58 0.00 77 1006.9
20260507115826 10 286 6.4 16.1 0.00 0.58 0.00 77 1007.0
20260507115321 9 236 6.4 14.5 0.00 0.58 0.00 78 1007.0
20260507114817 9 244 4.8 12.9 0.00 0.58 0.00 79 1007.0
20260507114312 9 242 3.2 12.9 0.00 0.58 0.00 78 1006.9
20260507113826 9 246 6.4 11.3 0.00 0.58 0.00 78 1006.8
20260507113322 9 254 4.8 11.3 0.00 0.58 0.00 80 1006.8
20260507112821 9 252 3.2 8.0 0.00 0.58 0.00 80 1006.8
20260507112317 9 261 3.2 6.4 0.00 0.58 0.00 82 1006.8
20260507111812 8 240 0.0 4.8 0.00 0.58 0.00 84 1006.6
20260507111327 8 240 1.6 4.8 0.00 0.58 0.00 83 1006.7
20260507110822 8 240 0.0 1.6 0.00 0.58 0.00 84 1006.6
20260507110318 8 240 0.0 1.6 0.00 0.58 0.00 86 1006.5
20260507105813 8 240 0.0 1.6 0.00 0.58 0.00 86 1006.5
20260507105312 8 240 0.0 1.6 0.00 0.58 0.00 88 1006.4
20260507104848 7 240 0.0 0.0 0.00 0.58 0.00 89 1006.5
20260507104322 7 240 0.0 0.0 0.00 0.58 0.00 91 1006.5
20260507103818 7 240 0.0 3.2 0.00 0.58 0.00 92 1006.5
20260507103313 6 240 0.0 3.2 0.00 0.58 0.00 92 1006.6
20260507102848 6 240 0.0 1.6 0.00 0.58 0.00 92 1006.8
20260507102323 6 240 0.0 3.2 0.00 0.58 0.00 92 1006.8
20260507101819 6 240 0.0 4.8 0.00 0.58 0.00 92 1006.6
20260507101335 6 240 0.0 6.4 0.00 0.58 0.00 92 1006.5
20260507100814 6 240 0.0 6.4 0.00 0.58 0.00 92 1006.8
20260507100329 6 259 0.0 1.6 0.00 0.58 0.00 93 1006.7
20260507095824 6 259 0.0 3.2 0.00 0.58 0.00 93 1006.9
20260507095320 6 259 0.0 1.6 0.00 0.58 0.00 93 1006.7
20260507094816 6 259 0.0 1.6 0.00 0.58 0.00 93 1006.8
20260507094313 6 259 0.0 3.2 0.00 0.58 0.00 93 1006.6
20260507093848 6 259 0.0 8.0 0.00 0.58 0.00 94 1006.8
20260507093342 6 259 3.2 8.0 0.00 0.58 0.00 94 1006.7
20260507092817 6 268 3.2 6.4 0.00 0.58 0.00 94 1006.8
20260507092316 6 231 0.0 3.2 0.00 0.58 0.00 94 1006.7
20260507091812 6 231 1.6 3.2 0.00 0.58 0.00 94 1006.3
20260507091327 6 231 1.6 3.2 0.00 0.58 0.00 94 1006.1
20260507090823 6 231 1.6 3.2 0.00 0.58 0.00 93 1006.0
20260507090318 6 231 0.0 1.6 0.00 0.58 0.00 93 1006.0
20260507085812 6 231 0.0 1.6 0.00 0.58 0.00 93 1006.2
20260507085328 6 231 0.0 3.2 0.00 0.58 0.00 93 1006.2
20260507084827 6 231 0.0 3.2 0.00 0.58 0.00 92 1006.3
20260507084323 6 231 0.0 3.2 0.00 0.58 0.00 92 1006.2
20260507083818 7 231 1.6 3.2 0.00 0.58 0.00 92 1006.4
20260507083313 7 231 0.0 1.6 0.00 0.58 0.00 91 1006.2
20260507082848 7 231 0.0 1.6 0.00 0.58 0.00 91 1006.0
20260507082323 7 231 0.0 9.7 0.00 0.58 0.00 92 1006.2
20260507081840 7 242 3.2 9.7 0.00 0.58 0.00 92 1006.4
20260507081333 7 249 3.2 8.0 0.00 0.58 0.00 92 1006.2
20260507080827 7 255 1.6 6.4 0.00 0.58 0.00 92 1006.0
20260507080327 7 255 0.0 6.4 0.00 0.58 0.00 92 1006.1
20260507075842 7 255 3.2 6.4 0.00 0.58 0.00 92 1006.2
20260507075317 7 249 1.6 4.8 0.00 0.58 0.00 91 1006.0
20260507074813 7 249 1.6 4.8 0.00 0.58 0.00 91 1006.0
20260507074326 7 249 1.6 4.8 0.00 0.58 0.00 90 1005.5
20260507073821 7 268 1.6 3.2 0.00 0.58 0.00 90 1005.7
20260507073317 7 268 0.0 1.6 0.00 0.58 0.00 90 1005.5
20260507072813 7 268 0.0 9.7 0.00 0.58 0.00 90 1005.5
20260507072348 7 268 1.6 9.7 0.00 0.58 0.00 90 1005.6
20260507071827 7 258 1.6 9.7 0.00 0.58 0.00 90 1005.7
20260507071322 7 261 1.6 14.5 0.00 0.58 0.00 90 1005.5
20260507070818 8 247 3.2 14.5 0.00 0.58 0.00 90 1005.7
20260507070314 8 268 8.0 14.5 0.00 0.58 0.00 89 1005.5
20260507065849 8 235 3.2 14.5 0.00 0.58 0.00 89 1005.5
20260507065324 8 278 6.4 16.1 0.00 0.58 0.00 89 1005.8
20260507064819 8 257 6.4 16.1 0.00 0.58 0.00 90 1005.6
20260507064335 8 259 9.7 17.7 0.00 0.58 0.00 90 1005.6
20260507063814 8 269 6.4 24.1 0.00 0.58 0.00 91 1005.6
20260507063329 8 241 12.9 24.1 0.00 0.58 0.00 91 1005.3
20260507062825 8 268 9.7 22.5 0.00 0.58 0.00 91 1005.2
20260507062320 8 229 9.7 24.1 0.00 0.58 0.00 91 1005.1
20260507061816 8 232 12.9 24.1 0.00 0.58 0.00 91 1005.0
20260507061351 8 237 8.0 22.5 0.00 0.58 0.00 91 1005.0
20260507060826 8 256 11.3 25.7 0.00 0.58 0.00 91 1005.0
20260507060321 8 262 11.3 19.3 0.00 0.58 0.00 91 1005.1
20260507055836 8 253 11.3 25.7 0.00 0.58 0.00 91 1005.2
20260507055314 8 260 9.7 20.9 0.00 0.58 0.00 92 1005.3
20260507054830 8 252 8.0 20.9 0.00 0.58 0.00 92 1005.0
20260507054325 8 264 8.0 16.1 0.00 0.58 0.00 92 1005.1
20260507053840 8 277 6.4 16.1 0.00 0.58 0.00 92 1005.0
20260507053314 8 245 6.4 14.5 0.00 0.58 0.00 92 1004.9
20260507052831 8 235 4.8 16.1 0.00 0.58 0.00 92 1004.7
20260507052326 8 239 8.0 16.1 0.00 0.58 0.00 92 1004.9
20260507051822 8 247 6.4 16.1 0.00 0.58 0.00 92 1004.9
20260507051340 8 245 6.4 16.1 0.00 0.58 0.00 92 1005.0
20260507050815 8 218 8.0 22.5 0.00 0.58 0.00 92 1004.9
20260507050330 8 259 8.0 22.5 0.00 0.58 0.00 92 1004.8
20260507045826 8 237 8.0 16.1 0.00 0.58 0.00 93 1005.0
20260507045321 8 261 8.0 16.1 0.00 0.58 0.00 92 1004.8
20260507044817 8 284 6.4 12.9 0.00 0.58 0.00 93 1004.9
20260507044313 8 235 4.8 14.5 0.00 0.58 0.00 92 1004.9
20260507043812 9 257 8.0 20.9 0.00 0.58 0.00 92 1004.8
20260507043348 9 254 8.0 20.9 0.00 0.58 0.00 92 1004.8
20260507042822 9 235 9.7 19.3 0.00 0.58 0.00 92 1005.0
20260507042318 9 262 6.4 17.7 0.00 0.58 0.00 92 1004.8
20260507041814 9 248 11.3 17.7 0.00 0.58 0.00 93 1004.7
20260507041349 9 277 9.7 24.1 0.00 0.58 0.00 93 1004.8
20260507040823 9 234 9.7 20.9 0.00 0.58 0.00 93 1004.8
20260507040319 9 253 8.0 14.5 0.00 0.58 0.00 93 1004.8
20260507035815 10 262 3.2 19.3 0.00 0.58 0.00 93 1004.6
20260507035314 10 252 8.0 20.9 0.00 0.58 0.00 92 1004.7
20260507034850 10 271 6.4 24.1 0.00 0.58 0.00 93 1004.7
20260507034325 10 266 8.0 24.1 0.00 0.58 0.00 93 1004.7
20260507033818 10 236 6.4 14.5 0.00 0.58 0.00 93 1004.7
20260507033314 10 247 9.7 16.1 0.00 0.58 0.00 93 1004.7
20260507032829 10 245 9.7 19.3 0.03 0.58 0.00 93 1004.8
20260507032325 10 238 9.7 20.9 0.03 0.58 0.58 93 1004.7
20260507031821 10 224 11.3 20.9 0.03 0.58 0.58 93 1004.8
20260507031321 10 244 12.9 19.3 0.03 0.58 0.58 92 1004.7
20260507030817 10 240 12.9 19.3 0.03 0.58 0.58 92 1004.7
20260507030312 11 228 8.0 24.1 0.03 0.58 0.58 92 1004.6
20260507025827 11 252 12.9 24.1 0.03 0.58 0.58 92 1004.8
20260507025323 11 260 11.3 22.5 0.03 0.58 0.58 91 1004.6
20260507024818 11 286 8.0 20.9 0.03 0.58 0.58 92 1004.4
20260507024313 12 265 3.2 14.5 0.03 0.58 0.58 92 1004.3
20260507023848 12 245 3.2 14.5 0.03 0.58 0.58 92 1004.2
20260507023343 12 226 4.8 14.5 0.03 0.58 0.58 92 1004.2
20260507022820 12 234 6.4 9.7 0.00 0.56 0.56 92 1004.2
20260507022316 12 239 3.2 14.5 0.00 0.56 0.56 93 1004.2
20260507021852 12 226 9.7 14.5 0.00 0.56 0.56 92 1004.2
20260507021326 12 237 6.4 16.1 0.00 0.56 0.56 92 1004.1
20260507020822 13 235 3.2 12.9 0.00 0.56 0.56 92 1004.1
20260507020338 13 233 6.4 19.3 0.03 0.56 0.56 93 1004.2
20260507015812 13 235 6.4 16.1 0.03 0.56 0.56 93 1004.1
20260507015348 13 255 8.0 14.5 0.03 0.56 0.56 93 1004.2
20260507014822 13 252 4.8 9.7 0.03 0.56 0.56 93 1004.0
20260507014337 13 222 4.8 11.3 0.03 0.56 0.56 93 1004.0
20260507013815 13 242 1.6 11.3 0.03 0.56 0.56 93 1004.0
20260507013329 13 271 4.8 11.3 0.03 0.56 0.56 93 1004.0
20260507012821 14 247 3.2 12.9 0.03 0.56 0.56 93 1004.1
20260507012314 14 253 6.4 14.5 0.03 0.56 0.56 93 1004.0
20260507011828 14 263 4.8 17.7 0.03 0.56 0.56 93 1004.0
20260507011342 14 270 6.4 17.7 0.03 0.56 0.56 93 1004.0
20260507010852 15 256 9.7 22.5 0.03 0.56 0.56 93 1003.9
20260507010325 15 238 8.0 17.7 0.00 0.53 0.53 93 1004.0
20260507005816 15 275 9.7 20.9 0.00 0.53 0.53 93 1004.0
20260507005315 15 280 6.4 14.5 0.00 0.53 0.53 92 1003.9
20260507004847 15 251 4.8 16.1 0.00 0.53 0.53 92 1003.8
20260507004318 15 240 8.0 16.1 0.00 0.53 0.53 92 1003.8
20260507003829 15 238 6.4 16.1 0.00 0.53 0.53 92 1003.7
20260507003321 15 249 8.0 20.9 0.00 0.53 0.53 92 1003.7
20260507002815 15 250 6.4 20.9 0.00 0.53 0.53 92 1003.7
20260507002331 15 227 8.0 19.3 0.00 0.53 0.53 92 1003.6
20260507001825 15 237 6.4 20.9 0.00 0.53 0.53 92 1003.5
20260507001321 15 235 9.7 20.9 0.00 0.53 0.53 92 1003.6
20260507000832 15 249 12.9 22.5 0.00 0.53 0.53 92 1003.5
20260507000321 15 238 9.7 22.5 0.00 0.53 0.53 91 1003.5
20260506235812 15 228 8.0 22.5 0.00 0.53 0.53 91 1003.5
20260506235327 15 235 6.4 24.1 0.00 0.53 0.53 91 1003.4
20260506234823 15 195 9.7 24.1 0.00 0.53 0.53 91 1003.3
20260506234318 15 251 8.0 20.9 0.00 0.53 0.53 91 1003.3
20260506233833 15 235 4.8 22.5 0.00 0.53 0.53 91 1003.3
20260506233347 15 221 11.3 22.5 0.00 0.53 0.53 91 1003.4
20260506232822 15 225 6.4 20.9 0.00 0.53 0.53 91 1003.3
20260506232341 15 232 8.0 20.9 0.00 0.58 0.53 90 1003.3
20260506231816 15 242 9.7 30.6 0.00 0.58 0.53 90 1003.4
20260506231313 15 222 6.4 30.6 0.00 0.58 0.53 90 1003.3
20260506230827 15 249 11.3 22.5 0.00 0.58 0.53 90 1003.4
20260506230323 15 223 12.9 22.5 0.00 0.58 0.53 90 1003.4
20260506225819 15 223 8.0 20.9 0.00 0.58 0.53 91 1003.4
20260506225314 15 218 14.5 25.7 0.00 0.58 0.53 91 1003.5
20260506224813 16 230 9.7 25.7 0.00 0.58 0.53 91 1003.5
20260506224328 16 225 14.5 20.9 0.00 0.58 0.53 91 1003.5
20260506223844 16 232 6.4 25.7 0.00 0.58 0.53 91 1003.5
20260506223318 16 240 6.4 24.1 0.00 0.58 0.53 91 1003.6
20260506222814 16 234 8.0 16.1 0.00 0.58 0.53 91 1003.6
20260506222329 16 233 8.0 17.7 0.00 0.58 0.53 91 1003.6
20260506221845 16 241 3.2 17.7 0.00 0.58 0.53 91 1003.5
20260506221318 16 229 9.7 19.3 0.00 0.58 0.53 92 1003.5
20260506220813 16 229 4.8 22.5 0.00 0.58 0.53 92 1003.7
20260506220313 16 264 9.7 22.5 0.00 0.58 0.53 92 1003.8
20260506215846 16 247 1.6 14.5 0.00 0.58 0.53 92 1003.7
20260506215320 16 237 3.2 17.7 0.00 0.58 0.53 92 1003.7
20260506214816 16 238 4.8 24.1 0.00 0.58 0.53 92 1003.7
20260506214332 16 210 8.0 24.1 0.00 0.58 0.53 92 1003.8
20260506213827 16 237 6.4 17.7 0.00 0.58 0.53 92 1003.8
20260506213323 16 228 9.7 17.7 0.03 0.58 0.53 92 1003.9
20260506212819 16 254 4.8 19.3 0.03 0.58 0.53 92 1004.0